Location: Newark
(42.6681°N, 4.0833°W)
Time: 22:18:28
(UTC+00:00)

X-37B - Pass Details

Date: 04 October 2020
Orbit: 382 x 392 km, 45.0° (Epoch: 15 October)

Event Time Altitude Azimuth Distance (km) Brightness Sun altitude
Rises 18:44:57 0° 234° (SW) 2,258 5.3 -10.6°
Reaches altitude 10° 18:47:04 10° 227° (SW) 1,405 4.1 -11.0°
Maximum altitude 18:50:05 44° 154° (SSE) 543 1.1 -11.5°
Enters shadow 18:51:52 21° 91° (E) 933 1.9 -11.9°
